Regional Weather Roundup
Issued by NWS Raleigh/Durham, NC

Current Version | Previous Version | Graphics & Text | Print | Product List | Glossary On
Versions: 1 2 3 4 5 6 7 8 9 10 11 12 13 14 15 16 17 18 19 20 21 22 23 24 25 26 27
000
ASUS42 KRAH 300510
RWRRAH
NORTH CAROLINA WEATHER ROUNDUP
NATIONAL WEATHER SERVICE RALEIGH NC
100 AM EDT SAT JUL 30 2016

NOTE: "FAIR" INDICATES FEW OR NO CLOUDS BELOW 12,000 FEET WITH NO
SIGNIFICANT WEATHER AND/OR OBSTRUCTIONS TO VISIBILITY.

NCZ001-053-055-056-065-067-300600-
WESTERN NORTH CAROLINA

CITY           SKY/WX    TMP DP  RH WIND       PRES   REMARKS
ASHEVILLE      CLOUDY    70  67  90 CALM      30.06F
JEFFERSON      CLOUDY    70  64  83 W3        30.12S
HICKORY        CLOUDY    73  72  96 CALM      29.99F
RUTHERFORDTON    N/A     73  73  98 CALM      30.00F
MOUNT AIRY     MOCLDY    77  71  81 CALM      30.04S
BOONE          PTCLDY    67  67  97 NW5       30.12F
$$

NCZ021-022-025-041-071-084-088-300600-
CENTRAL NORTH CAROLINA

CITY           SKY/WX    TMP DP  RH WIND       PRES   REMARKS
CHARLOTTE      MOCLDY    79  71  76 NW3       29.97F
GREENSBORO     CLOUDY    81  68  64 NW8       29.99R
WINSTON-SALEM  MOCLDY    76  71  85 N6        30.00F
RALEIGH-DURHAM PTCLDY    77  71  82 CALM      29.96F
FORT BRAGG     PTCLDY    81  71  73 CALM      29.94S
FAYETTEVILLE   PTCLDY    81  72  74 SW5       29.95S
BURLINGTON     MOCLDY    75  72  90 CALM      29.97R
LAURINBURG     CLOUDY    78  73  84 CALM      29.96S
$$

NCZ011-015-027-028-043-044-047-080-103-300600-
NORTHEASTERN NORTH CAROLINA

CITY           SKY/WX    TMP DP  RH WIND       PRES   REMARKS
ROCKY MT-WILSO CLEAR     74  74 100 CALM      29.96S
GREENVILLE     CLEAR     77  75  94 CALM      29.97S
WASHINGTON     CLEAR     77  75  93 CALM      29.95S
ELIZABETH CITY CLEAR     78  73  84 SE3       29.95F
MANTEO         NOT AVBL
CAPE HATTERAS  CLEAR     79  75  87 CALM      29.95S
$$

NCZ078-087-090-091-093-098-101-300600-
SOUTHEASTERN NORTH CAROLINA

CITY           SKY/WX    TMP DP  RH WIND       PRES   REMARKS
LUMBERTON      CLOUDY    79  72  79 CALM      29.94F
GOLDSBORO      PTCLDY    78  76  93 CALM      29.94S
KENANSVILLE    NOT AVBL
NEW BERN       CLEAR     78  75  90 CALM      29.96S
CHERRY POINT   CLEAR     80  77  90 CALM      29.96S
BEAUFORT       CLOUDY    83  81  94 CALM      29.95S HX  97
JACKSONVILLE   CLEAR     79  75  87 SW3       29.94F
WILMINGTON     PTCLDY    82  78  88 S3        29.95S
$$





USA.gov is the U.S. government's official web portal to all federal, state and local government web resources and services.